Regional Weather Roundup
Issued by NWS

Home | Current Version | Previous Version | Text Only | Print | Product List | Glossary On
Versions: 1 2 3 4 5 6 7 8 9 10 11 12 13 14 15 16 17 18 19 20 21 22 23 24 25 26 27 28 29 30 31 32 33 34 35 36 37 38 39 40 41 42 43 44 45 46 47 48 49 50
000
ASUS43 KDTX 050310
RWRMI
MICHIGAN HOURLY REGIONAL WEATHER ROUNDUP
NATIONAL WEATHER SERVICE DETROIT/PONTIAC MI
1100 PM EDT MON MAY 04 2015

NOTE: "FAIR" INDICATES FEW OR NO CLOUDS BELOW 12,000 FEET WITH NO
SIGNIFICANT WEATHER AND/OR OBSTRUCTION TO VISIBILITY.

MIZ047>049-052>055-059>063-066>070-074>076-081>083-050400-
SOUTHEAST LOWER MICHIGAN

CITY           SKY/WX    TMP DP  RH WIND       PRES   REMARKS
ADRIAN         CLOUDY    63  60  90 W3        30.19R
ALMA           CLOUDY    61  33  35 N8        30.21R
ANN ARBOR      CLOUDY    60  56  86 CALM      30.17R
BAD AXE        PTCLDY    53  36  53 CALM      30.22R
CARO           PTCLDY    57  45  63 E6        30.20R
DETROIT CITY   MOCLDY    63  58  83 NE3       30.17R
DETROIT        CLOUDY    68  61  78 SW7       30.17R
FLINT          CLOUDY    68  42  38 N9        30.19R
GROSSE ILE     CLOUDY    66  61  82 W6        30.16R
HILLSDALE      MOCLDY    62  56  82 CALM      30.20R
HOWELL         MOCLDY    64  54  70 CALM      30.18R

CITY           SKY/WX    TMP DP  RH WIND       PRES   REMARKS
JACKSON        MOCLDY    61  54  77 W3        30.19R
LAMBERTVILLE   CLOUDY    64  61  88 SW3       30.19R
LANSING        PTCLDY    66  46  48 N9        30.19R
LAPEER         CLOUDY    59  48  65 E9        30.21R
MASON          PTCLDY    63  52  66 CALM      30.19R
MONROE         CLOUDY    63  59  88 W5        30.16R
PONTIAC        MOCLDY    61  55  81 CALM      30.18R
PORT HOPE        N/A     50  35  56 VRB3      30.20R
PORT HURON     MOCLDY    52  48  87 NE7       30.21S
TRI CITIES     MOCLDY    59  47  64 N10       30.22R
MIDLAND        FAIR      59  36  41 N5        30.21R
TROY           CLOUDY    67  55  64 E7        30.20R
SAGINAW HB     PTCLDY    55  45  67 N3        30.21R
$$
MIZ043>046-050>051-056>058-064>065-071>073-077>080-050400-
SOUTHWEST LOWER MICHIGAN

CITY           SKY/WX    TMP DP  RH WIND       PRES   REMARKS
BATTLE CREEK   PTCLDY    61  53  75 S3        30.20R
BENTON HARBOR  PTCLDY    54  50  86 CALM      30.18F
BIG RAPIDS     PTCLDY    56  32  39 NE3       30.22R
COLDWATER      MOCLDY    60  52  76 SW3       30.19S
FREMONT        FAIR      60  28  29 NE6       30.20R
HOLLAND        PTCLDY    50  44  80 SW3       30.20R
GRAND RAPIDS   PTCLDY    59  50  72 NE6       30.20R
IONIA          MOCLDY    64  40  41 NE7       30.20R
KALAMAZOO      CLOUDY    62  54  74 SW3       30.20R
LUDINGTON      CLOUDY    56  31  39 NE3       30.22S
MARSHALL       FAIR      59  53  80 CALM      30.19R
MOUNT PLEASANT PTCLDY    57  35  44 N5        30.21R
MUSKEGON       MOCLDY    62  37  39 NE8       30.20R
SOUTH HAVEN    PTCLDY    53  48  84 CALM      30.19S
$$
MIZ016>042-050400-
NORTHERN LOWER MICHIGAN

CITY           SKY/WX    TMP DP  RH WIND       PRES   REMARKS
ALPENA         PTCLDY    50  37  61 NW9       30.24R
BEAVER ISLAND  PTCLDY    41  35  79 CALM      30.26R
BELLAIRE       PTCLDY    45  39  80 CALM      30.26R
CADILLAC       PTCLDY    49  35  56 N5        30.23S
CHARLEVOIX     MOCLDY    47  35  61 N3        30.29R
FRANKFORT      MOCLDY    56  31  37 E6        30.24R
GRAYLING       PTCLDY    42  34  72 NW3       30.25S
HARBOR SPRINGS PTCLDY    41  34  76 CALM      30.26R
HOUGHTON LAKE  PTCLDY    50  37  61 N7        30.24R
MANISTEE       MOCLDY    54  32  43 E6        30.24S
OSCODA         CLEAR     48  39  71 CALM      30.21R
PELLSTON       MOCLDY    44  33  65 CALM      30.26R
ROGERS CITY    PTCLDY    48  38  67 NW8       30.25S
TRAVERSE CITY  MOCLDY    45  37  73 CALM      30.24S
$$
MIZ007>008-015-050400-
EASTERN UPPER MICHIGAN

CITY           SKY/WX    TMP DP  RH WIND       PRES   REMARKS
KINROSS        PTCLDY    41  37  87 N9        30.23S
MACKINAC ISLAN PTCLDY    49  36  62 NW6       30.25R
NEWBERRY       PTCLDY    44  37  75 W5        30.24S
S. S. MARIE    CLEAR     44  35  70 NW9       30.23R
MUNISING         N/A     43  36  76 S6        30.25R
$$
MIZ004>006-011>014-085-050400-
CENTRAL UPPER MICHIGAN

CITY           SKY/WX    TMP DP  RH WIND       PRES   REMARKS
MANISTIQUE     CLEAR     44  34  66 N6        30.24S
ESCANABA       PTCLDY    46  34  61 CALM      30.25R
MENOMINEE      MOCLDY    48  36  61 SE6       30.25R
SAWYER-GWINN   CLEAR     45  34  65 CALM      30.25R
$$
MIZ001>003-009>011-084-050400-
WESTERN UPPER MICHIGAN

CITY           SKY/WX    TMP DP  RH WIND       PRES   REMARKS
IRON MOUNTAIN  PTCLDY    52  36  54 CALM      30.24R
HOUGHTON       CLEAR     42  36  79 NW3       30.23R
COPPER HARBOR    N/A     46  37  71 CALM      30.23R
IRONWOOD       CLEAR     45  34  65 CALM      30.22R
$$

ABBREVIATIONS USED IN REMARKS
   TC - TEMPERATURE IN CELSIUS
  WCI - WIND CHILL INDEX
   HX - HEAT INDEX
  VSB - VISIBILITY



USA.gov is the U.S. government's official web portal to all federal, state and local government web resources and services.